Location: Staunton
(38.1490°N, 79.0720°W)
Time: 21:45:53
(UTC-04:00)

ISS - Pass Details

Date: 06 July 2020
Orbit: 417 x 421 km, 51.6° (Epoch: 08 July)

Event Time Altitude Azimuth Distance (km) Brightness Sun altitude
Exits shadow 03:35:31 10° 309° (NW) 1,473 -0.9 -21.5°
Maximum altitude 03:37:15 14° 340° (NNW) 1,283 -0.9 -21.3°
Drops below altitude 10° 03:39:05 10° 13° (NNE) 1,495 0.0 -21.1°
Sets 03:41:59 0° 41° (NE) 2,361 1.6 -20.8°
